Location: Newark
(43.0000°N, 1.6781°W)
Time: 10:55:46
(UTC+00:00)

Explorer 7 - Pass Details

Date: 28 April 2021
Orbit: 484 x 677 km, 50.3° (Epoch: 07 May)

Event Time Altitude Azimuth Distance (km) Brightness Sun altitude
Rises 22:49:06 0° 298° (WNW) 2,731 11.0 -30.0°
Reaches altitude 10° 22:51:18 10° 294° (WNW) 1,865 10.0 -30.2°
Enters shadow 22:52:37 19° 289° (WNW) 1,375 9.2 -30.2°
Maximum altitude 22:55:29 56° 216° (SW) 707 - -30.4°
Drops below altitude 10° 22:59:55 10° 139° (SE) 1,978 - -30.7°
Sets 23:02:19 0° 135° (SE) 2,912 - -30.8°
